Date String (YYYY-MM-DD hh:mm:ss) UTC,Instrument flags,Ambient pressure (hPa),Sample flow (lpm),Bypass flow (lpm),Sample temperature (°C),Ambient temperature (°C),ASC tube jacket temperature (°C),LED temperature (°C),Box temperature (°C),Sample RH (%),Span deviation,Mass concentration (μg/m³),Mass concentration (μg/m³),Mass concentration (μg/m³)
DateTimeUTC,F1_M11,P_M11,Q1_M11,Q2_M11,T1_M11,T2_M11,T3_M11,T4_M11,T5_M11,U1_M11,ZSPAN_M11,X0_M11,X2_M11,X1_M11
2022-07-02 16:00:00,,0829.0,5.00,0.00,29.5,27.3,00.0,38.2,31.2,29.9,0000.0,0009.51,0004.47,0003.64
2022-07-02 16:01:00,,0829.0,5.00,0.00,29.4,27.4,00.0,38.2,31.2,30.1,0000.0,0009.53,0004.49,0003.65
2022-07-02 16:02:00,,0829.0,5.01,0.00,29.4,27.6,00.0,38.2,31.2,29.8,0000.0,0009.62,0004.51,0003.67
2022-07-02 16:03:00,,0829.0,5.00,0.00,29.4,27.7,00.0,38.2,31.3,29.8,0000.0,0009.61,0004.54,0003.70
2022-07-02 16:04:00,,0829.1,5.00,0.00,29.4,27.9,00.0,38.2,31.3,30.0,0000.0,0009.48,0004.58,0003.73
2022-07-02 16:05:00,,0829.1,5.00,0.00,29.4,28.0,00.0,38.2,31.4,30.0,0000.0,0009.49,0004.58,0003.72
2022-07-02 16:06:00,,0829.0,5.00,0.00,29.5,28.1,00.0,38.2,31.4,30.0,0000.0,0009.43,0004.53,0003.72
2022-07-02 16:07:00,,0829.0,5.00,0.00,29.5,28.3,00.0,38.2,31.4,29.8,0000.0,0009.40,0004.58,0003.73
2022-07-02 16:08:00,,0829.0,5.00,0.00,29.5,28.4,00.0,38.3,31.5,30.0,0000.0,0009.86,0004.64,0003.76
2022-07-02 16:09:00,,0829.1,5.00,0.00,29.5,28.4,00.0,38.3,31.5,29.7,0000.0,0009.96,0004.68,0003.78
2022-07-02 16:10:00,,0829.1,4.99,0.00,29.6,28.4,00.0,38.3,31.5,29.6,0000.0,0010.24,0004.73,0003.80
2022-07-02 16:11:00,,0829.0,5.00,0.00,29.6,27.9,00.0,38.2,31.4,29.9,0000.0,0010.07,0004.74,0003.81
2022-07-02 16:12:00,,0829.0,5.01,0.00,29.5,27.3,00.0,38.2,31.3,30.1,0000.0,0010.28,0004.73,0003.82
2022-07-02 16:13:00,,0829.0,5.01,0.00,29.5,27.2,00.0,38.2,31.3,30.0,0000.0,0010.49,0004.76,0003.82
2022-07-02 16:14:00,,0829.0,5.01,0.00,29.4,27.2,00.0,38.2,31.2,30.2,0000.0,0010.48,0004.78,0003.82
2022-07-02 16:15:00,,0829.0,5.00,0.00,29.4,27.3,00.0,38.2,31.2,30.2,0000.0,0010.58,0004.79,0003.83
2022-07-02 16:16:00,,0829.0,5.00,0.00,29.4,27.5,00.0,38.2,31.2,30.2,0000.0,0010.63,0004.79,0003.84
2022-07-02 16:17:00,,0829.0,5.01,0.00,29.4,27.6,00.0,38.2,31.2,29.9,0000.0,0010.62,0004.80,0003.86
2022-07-02 16:18:00,,0829.0,5.00,0.00,29.4,27.8,00.0,38.2,31.3,29.8,0000.0,0010.41,0004.80,0003.87
2022-07-02 16:19:00,,0829.0,5.00,0.00,29.4,28.0,00.0,38.2,31.3,29.7,0000.0,0009.75,0004.78,0003.87
2022-07-02 16:20:00,,0829.0,5.00,0.00,29.4,28.1,00.0,38.2,31.3,29.4,0000.0,0009.51,0004.73,0003.84
2022-07-02 16:21:00,,0829.0,5.00,0.00,29.4,28.2,00.0,38.2,31.4,29.2,0000.0,0009.71,0004.69,0003.83
2022-07-02 16:22:00,,0829.0,5.00,0.00,29.5,28.3,00.0,38.2,31.4,29.6,0000.0,0009.65,0004.66,0003.81
2022-07-02 16:23:00,,0829.0,5.00,0.00,29.5,28.4,00.0,38.2,31.5,29.9,0000.0,0009.43,0004.64,0003.80
2022-07-02 16:24:00,,0829.0,5.01,0.00,29.5,28.3,00.0,38.2,31.5,29.7,0000.0,0009.18,0004.63,0003.80
2022-07-02 16:25:00,,0829.0,5.00,0.00,29.5,27.7,00.0,38.2,31.4,29.2,0000.0,0009.17,0004.62,0003.80
2022-07-02 16:26:00,,0829.0,5.00,0.00,29.5,27.2,00.0,38.1,31.3,28.7,0000.0,0009.09,0004.60,0003.79
2022-07-02 16:27:00,,0829.1,4.99,0.00,29.4,27.1,00.0,38.1,31.2,28.1,0000.0,0009.01,0004.56,0003.76
2022-07-02 16:28:00,,0829.0,5.00,0.00,29.4,27.2,00.0,38.1,31.1,28.0,0000.0,0008.96,0004.52,0003.72
2022-07-02 16:29:00,,0829.0,5.00,0.00,29.3,27.3,00.0,38.1,31.1,28.1,0000.0,0008.77,0004.43,0003.68
2022-07-02 16:30:00,,0829.1,5.00,0.00,29.3,27.5,00.0,38.1,31.1,28.2,0000.0,0008.70,0004.37,0003.63
2022-07-02 16:31:00,,0829.0,5.00,0.00,29.3,27.6,00.0,38.1,31.2,28.2,0000.0,0008.67,0004.34,0003.60
2022-07-02 16:32:00,,0829.0,5.00,0.00,29.3,27.8,00.0,38.1,31.2,28.2,0000.0,0008.45,0004.33,0003.58
2022-07-02 16:33:00,,0829.0,5.00,0.00,29.3,27.9,00.0,38.1,31.3,28.4,0000.0,0008.36,0004.27,0003.56
2022-07-02 16:34:00,,0829.1,5.00,0.00,29.4,28.1,00.0,38.1,31.3,28.3,0000.0,0008.31,0004.23,0003.53
2022-07-02 16:35:00,,0829.1,4.99,0.00,29.4,28.2,00.0,38.1,31.4,28.2,0000.0,0008.33,0004.18,0003.50
2022-07-02 16:36:00,,0829.0,5.01,0.00,29.4,28.3,00.0,38.1,31.4,28.2,0000.0,0008.94,0004.18,0003.48
2022-07-02 16:37:00,,0829.1,5.01,0.00,29.5,28.4,00.0,38.2,31.4,28.4,0000.0,0008.81,0004.13,0003.46
2022-07-02 16:38:00,,0829.0,5.01,0.00,29.5,28.5,00.0,38.2,31.5,28.7,0000.0,0008.71,0004.12,0003.46
2022-07-02 16:39:00,,0829.0,5.00,0.00,29.5,28.0,00.0,38.1,31.4,28.5,0000.0,0008.73,0004.14,0003.48
2022-07-02 16:40:00,,0829.0,5.00,0.00,29.5,27.4,00.0,38.1,31.3,29.2,0000.0,0008.78,0004.15,0003.50
2022-07-02 16:41:00,,0829.0,5.00,0.00,29.4,27.2,00.0,38.1,31.2,29.1,0000.0,0008.98,0004.20,0003.53
2022-07-02 16:42:00,,0829.0,4.99,0.00,29.4,27.2,00.0,38.1,31.2,29.1,0000.0,0008.99,0004.22,0003.56
2022-07-02 16:43:00,,0829.0,4.99,0.00,29.3,27.3,00.0,38.1,31.1,28.9,0000.0,0008.96,0004.20,0003.59
2022-07-02 16:44:00,,0829.0,5.01,0.00,29.3,27.5,00.0,38.1,31.1,28.9,0000.0,0009.51,0004.25,0003.62
2022-07-02 16:45:00,,0829.0,5.01,0.00,29.3,27.6,00.0,38.1,31.2,29.1,0000.0,0009.81,0004.34,0003.65
2022-07-02 16:46:00,,0829.0,5.00,0.00,29.3,27.8,00.0,38.1,31.2,28.8,0000.0,0010.25,0004.37,0003.67
2022-07-02 16:47:00,,0829.0,5.00,0.00,29.3,27.9,00.0,38.1,31.3,28.7,0000.0,0009.75,0004.36,0003.68
2022-07-02 16:48:00,,0829.0,5.01,0.00,29.4,28.1,00.0,38.1,31.3,28.7,0000.0,0010.22,0004.39,0003.69
2022-07-02 16:49:00,,0829.0,5.00,0.00,29.4,28.2,00.0,38.1,31.3,28.7,0000.0,0010.39,0004.41,0003.71
2022-07-02 16:50:00,,0829.1,4.99,0.00,29.4,28.3,00.0,38.1,31.4,28.5,0000.0,0010.36,0004.41,0003.72
2022-07-02 16:51:00,,0829.1,5.00,0.00,29.4,28.3,00.0,38.1,31.4,28.4,0000.0,0010.29,0004.43,0003.74
2022-07-02 16:52:00,,0829.1,5.00,0.00,29.4,27.8,00.0,38.1,31.3,28.3,0000.0,0010.16,0004.43,0003.75
2022-07-02 16:53:00,,0829.1,5.00,0.00,29.4,27.2,00.0,38.0,31.2,28.1,0000.0,0010.28,0004.48,0003.76
2022-07-02 16:54:00,,0829.1,5.00,0.00,29.4,27.0,00.0,38.0,31.1,28.4,0000.0,0010.30,0004.52,0003.76
2022-07-02 16:55:00,,0829.1,5.01,0.00,29.3,27.0,00.0,38.0,31.1,28.4,0000.0,0009.60,0004.54,0003.76
2022-07-02 16:56:00,,0829.1,5.00,0.00,29.2,27.2,00.0,38.0,31.0,28.2,0000.0,0009.36,0004.50,0003.77
2022-07-02 16:57:00,,0829.2,4.99,0.00,29.2,27.4,00.0,38.0,31.1,28.1,0000.0,0009.10,0004.47,0003.76
2022-07-02 16:58:00,,0829.1,5.00,0.00,29.2,27.5,00.0,38.0,31.1,28.1,0000.0,0009.01,0004.48,0003.76
2022-07-02 16:59:00,,0829.2,5.00,0.00,29.2,27.7,00.0,38.0,31.1,27.9,0000.0,0008.67,0004.48,0003.76
